When you browse on this site, cookies collect data to enhance your experience and personalize the content and advertising you see.
Visit our Privacy Policy to learn more. By continuing to use the site, you agree to this use of cookies and data.
  • en France
  • Liste des pays
  • À 7 jours
  • Température de l'eau
  • Carte satellitaire
  • Carte météo
  • Widgets météo
  • user-avatar
    Se connecter

    Météo par heure à Darwin

    Ce jour, 16 Février, Samedi

    Heure Température Précipitation Vent Pression Humidité
    00:00 +30°C° 0 mm 3 m/s 758 mmHg 86%
    01:00 +29°C° 0 mm 2 m/s 758 mmHg 87%
    02:00 +29°C° 0 mm 2 m/s 758 mmHg 88%
    03:00 +29°C° 0 mm 2 m/s 758 mmHg 89%
    04:00 +29°C° 0.6 mm 2 m/s 758 mmHg 89%
    05:00 +29°C° 0.6 mm 2 m/s 758 mmHg 90%
    06:00 +28°C° 0.6 mm 2 m/s 758 mmHg 90%
    07:00 +30°C° 0 mm 1 m/s 758 mmHg 84%
    08:00 +31°C° 0 mm 1 m/s 758 mmHg 77%
    09:00 +33°C° 0 mm 1 m/s 759 mmHg 70%
    10:00 +33°C° 0 mm 1 m/s 758 mmHg 69%
    11:00 +33°C° 0 mm 1 m/s 758 mmHg 68%
    12:00 +34°C° 0 mm 2 m/s 758 mmHg 67%
    13:00 +35°C° 0 mm 2 m/s 758 mmHg 63%
    14:00 +36°C° 0 mm 3 m/s 757 mmHg 58%
    15:00 +37°C° 0 mm 3 m/s 757 mmHg 53%
    16:00 +36°C° 0.1 mm 3 m/s 757 mmHg 57%
    17:00 +35°C° 0.1 mm 3 m/s 756 mmHg 61%
    18:00 +34°C° 0.1 mm 3 m/s 756 mmHg 65%
    19:00 +33°C° 0.9 mm 3 m/s 757 mmHg 71%
    20:00 +31°C° 0.9 mm 3 m/s 757 mmHg 77%
    21:00 +30°C° 0.9 mm 4 m/s 757 mmHg 82%
    22:00 +30°C° 1.5 mm 4 m/s 757 mmHg 83%
    23:00 +29°C° 1.5 mm 4 m/s 757 mmHg 84%

    Demain, 17 Février, Dimanche

    Heure Température Précipitation Vent Pression Humidité
    00:00 +29°C° 1.5 mm 4 m/s 757 mmHg 84%
    01:00 +29°C° 0.9 mm 3 m/s 757 mmHg 84%
    02:00 +29°C° 0.9 mm 3 m/s 757 mmHg 84%
    03:00 +29°C° 0.9 mm 3 m/s 757 mmHg 84%
    04:00 +29°C° 1.6 mm 3 m/s 757 mmHg 84%
    05:00 +29°C° 1.6 mm 3 m/s 757 mmHg 84%
    06:00 +28°C° 1.6 mm 3 m/s 757 mmHg 84%
    07:00 +29°C° 0.3 mm 2 m/s 758 mmHg 80%
    08:00 +30°C° 0.3 mm 2 m/s 758 mmHg 77%
    09:00 +32°C° 0.3 mm 1 m/s 758 mmHg 73%
    10:00 +33°C° 0.5 mm 1 m/s 758 mmHg 67%
    11:00 +35°C° 0.5 mm 2 m/s 758 mmHg 62%
    12:00 +36°C° 0.5 mm 2 m/s 757 mmHg 56%
    13:00 +36°C° 0 mm 2 m/s 757 mmHg 55%
    14:00 +37°C° 0 mm 3 m/s 756 mmHg 54%
    15:00 +37°C° 0 mm 3 m/s 756 mmHg 53%
    16:00 +36°C° 0.7 mm 3 m/s 756 mmHg 61%
    17:00 +34°C° 0.7 mm 3 m/s 756 mmHg 68%
    18:00 +33°C° 0.7 mm 3 m/s 756 mmHg 75%
    19:00 +31°C° 0 mm 3 m/s 756 mmHg 77%
    20:00 +30°C° 0 mm 3 m/s 757 mmHg 80%
    21:00 +29°C° 0 mm 3 m/s 757 mmHg 82%
    22:00 +29°C° 0 mm 4 m/s 757 mmHg 83%
    23:00 +29°C° 0 mm 4 m/s 757 mmHg 83%

    Après-demain, 18 Février, Lundi

    Heure Température Précipitation Vent Pression Humidité
    00:00 +29°C° 0 mm 4 m/s 757 mmHg 84%
    01:00 +29°C° 1.1 mm 3 m/s 757 mmHg 85%
    02:00 +29°C° 1.1 mm 3 m/s 757 mmHg 86%
    03:00 +28°C° 1.1 mm 2 m/s 756 mmHg 88%
    04:00 +28°C° 0.7 mm 2 m/s 756 mmHg 87%
    05:00 +28°C° 0.7 mm 2 m/s 757 mmHg 87%
    06:00 +28°C° 0.7 mm 2 m/s 757 mmHg 87%
    07:00 +30°C° 0 mm 2 m/s 757 mmHg 81%
    08:00 +31°C° 0 mm 2 m/s 758 mmHg 75%
    09:00 +33°C° 0 mm 1 m/s 758 mmHg 69%
    10:00 +35°C° 0 mm 2 m/s 758 mmHg 64%
    11:00 +36°C° 0 mm 3 m/s 758 mmHg 59%
    12:00 +37°C° 0 mm 4 m/s 758 mmHg 53%
    13:00 +37°C° 0 mm 5 m/s 757 mmHg 53%
    14:00 +37°C° 0 mm 5 m/s 757 mmHg 53%
    15:00 +37°C° 0 mm 5 m/s 756 mmHg 53%
    16:00 +36°C° 0 mm 5 m/s 756 mmHg 57%
    17:00 +35°C° 0 mm 5 m/s 756 mmHg 62%
    18:00 +34°C° 0 mm 5 m/s 756 mmHg 66%
    19:00 +33°C° 0 mm 5 m/s 757 mmHg 70%
    20:00 +32°C° 0 mm 5 m/s 757 mmHg 73%
    21:00 +30°C° 0 mm 4 m/s 758 mmHg 77%
    22:00 +30°C° 0 mm 4 m/s 758 mmHg 78%
    23:00 +30°C° 0 mm 4 m/s 758 mmHg 80%

    19 Février, Mardi

    Heure Température Précipitation Vent Pression Humidité
    00:00 +30°C° 0 mm 5 m/s 758 mmHg 81%
    01:00 +30°C° 0 mm 5 m/s 757 mmHg 82%
    02:00 +29°C° 0 mm 5 m/s 757 mmHg 83%
    03:00 +29°C° 0 mm 5 m/s 757 mmHg 84%
    04:00 +29°C° 0.3 mm 4 m/s 757 mmHg 84%
    05:00 +29°C° 0.3 mm 4 m/s 757 mmHg 85%
    06:00 +29°C° 0.3 mm 4 m/s 758 mmHg 85%
    07:00 +30°C° 0.2 mm 4 m/s 758 mmHg 80%
    08:00 +33°C° 0.2 mm 4 m/s 759 mmHg 74%
    09:00 +34°C° 0.2 mm 4 m/s 759 mmHg 68%
    10:00 +34°C° 0 mm 4 m/s 759 mmHg 68%
    11:00 +34°C° 0 mm 4 m/s 758 mmHg 67%
    12:00 +34°C° 0 mm 4 m/s 758 mmHg 67%
    13:00 +35°C° 0 mm 5 m/s 757 mmHg 64%
    14:00 +35°C° 0 mm 5 m/s 757 mmHg 61%
    15:00 +36°C° 0 mm 6 m/s 756 mmHg 58%
    16:00 +35°C° 0 mm 6 m/s 756 mmHg 63%
    17:00 +34°C° 0 mm 5 m/s 756 mmHg 67%
    18:00 +33°C° 0 mm 5 m/s 756 mmHg 71%
    19:00 +33°C° 0 mm 5 m/s 757 mmHg 75%
    20:00 +32°C° 0 mm 5 m/s 758 mmHg 79%
    21:00 +30°C° 0 mm 4 m/s 758 mmHg 82%
    22:00 +30°C° 0 mm 4 m/s 758 mmHg 83%
    23:00 +30°C° 0 mm 5 m/s 758 mmHg 84%

    20 Février, Mercredi

    Heure Température Précipitation Vent Pression Humidité
    00:00 +30°C° 0 mm 5 m/s 758 mmHg 85%
    01:00 +30°C° 0 mm 5 m/s 757 mmHg 85%
    02:00 +30°C° 0 mm 6 m/s 757 mmHg 85%
    03:00 +30°C° 0 mm 6 m/s 757 mmHg 85%
    04:00 +30°C° 0 mm 5 m/s 757 mmHg 85%
    05:00 +30°C° 0 mm 5 m/s 758 mmHg 86%
    06:00 +30°C° 0 mm 4 m/s 759 mmHg 86%
    07:00 +29°C° 4.2 mm 4 m/s 759 mmHg 87%
    08:00 +28°C° 4.2 mm 4 m/s 759 mmHg 88%
    09:00 +28°C° 4.2 mm 4 m/s 760 mmHg 88%
    10:00 +29°C° 0.5 mm 3 m/s 759 mmHg 83%
    11:00 +30°C° 0.5 mm 3 m/s 759 mmHg 78%
    12:00 +31°C° 0.5 mm 2 m/s 758 mmHg 73%
    13:00 +33°C° 0 mm 3 m/s 757 mmHg 68%
    14:00 +34°C° 0 mm 3 m/s 756 mmHg 63%
    15:00 +35°C° 0 mm 3 m/s 756 mmHg 58%
    16:00 +34°C° 0 mm 4 m/s 756 mmHg 63%
    17:00 +34°C° 0 mm 4 m/s 756 mmHg 68%
    18:00 +33°C° 0 mm 5 m/s 756 mmHg 73%
    19:00 +32°C° 0 mm 4 m/s 756 mmHg 77%
    20:00 +30°C° 0 mm 4 m/s 756 mmHg 81%
    21:00 +30°C° 0 mm 4 m/s 757 mmHg 85%
    22:00 +29°C° 0 mm 4 m/s 757 mmHg 86%
    23:00 +29°C° 0 mm 4 m/s 757 mmHg 87%

    21 Février, Jeudi

    Heure Température Précipitation Vent Pression Humidité
    00:00 +29°C° 0 mm 4 m/s 757 mmHg 88%
    01:00 +29°C° 0.2 mm 5 m/s 757 mmHg 89%
    02:00 +29°C° 0.2 mm 5 m/s 757 mmHg 91%
    03:00 +29°C° 0.2 mm 5 m/s 757 mmHg 92%
    04:00 +29°C° 0 mm 5 m/s 757 mmHg 92%
    05:00 +29°C° 0 mm 4 m/s 757 mmHg 92%
    06:00 +29°C° 0 mm 4 m/s 757 mmHg 92%
    07:00 +30°C° 0 mm 4 m/s 757 mmHg 87%
    08:00 +32°C° 0 mm 5 m/s 758 mmHg 82%
    09:00 +33°C° 0 mm 5 m/s 758 mmHg 77%
    10:00 +34°C° 0 mm 5 m/s 758 mmHg 73%
    11:00 +35°C° 0 mm 5 m/s 757 mmHg 69%
    12:00 +36°C° 0 mm 5 m/s 757 mmHg 64%
    13:00 +36°C° 0.9 mm 5 m/s 757 mmHg 66%
    14:00 +35°C° 0.9 mm 5 m/s 756 mmHg 68%
    15:00 +35°C° 0.9 mm 4 m/s 756 mmHg 71%
    16:00 +34°C° 0 mm 4 m/s 756 mmHg 73%
    17:00 +34°C° 0 mm 4 m/s 756 mmHg 76%
    18:00 +33°C° 0 mm 4 m/s 756 mmHg 79%
    19:00 +32°C° 0 mm 4 m/s 756 mmHg 81%
    20:00 +32°C° 0 mm 4 m/s 756 mmHg 84%
    21:00 +30°C° 0 mm 4 m/s 757 mmHg 86%
    22:00 +30°C° 0.5 mm 4 m/s 757 mmHg 88%
    23:00 +30°C° 0.5 mm 4 m/s 757 mmHg 90%
    Voir plus